N7HRX Weather Reports


Display with metric or nautical units.
time (UTC)temp
F
wind
direction
speed
MPH
gust
MPH
rain 1hr
in
rain 24hr
in
rain mn
in
humidity
%
barometer
mb
20210412195931 55 306 6.0 12.0 0.00 0.00 0.00 23 1014.2
20210412194347 55 355 5.0 13.0 0.00 0.00 0.00 23 1014.2
20210412193336 54 296 5.0 11.0 0.00 0.00 0.00 25 1014.5
20210412192856 54 22 3.0 13.0 0.00 0.00 0.00 21 1014.5
20210412191341 54 325 7.0 14.0 0.00 0.00 0.00 25 1014.7
20210412190447 53 325 5.0 10.0 0.00 0.00 0.00 25 1014.7
20210412185935 51 334 5.0 15.0 0.00 0.00 0.00 25 1014.7
20210412183340 52 311 1.0 6.0 0.00 0.00 0.00 27 1014.9
20210412182922 52 195 3.0 7.0 0.00 0.00 0.00 26 1015.2
20210412181327 52 346 5.0 9.0 0.00 0.00 0.00 30 1015.2
20210412180353 51 236 1.0 11.0 0.00 0.00 0.00 29 1015.4
20210412175947 50 30 3.0 9.0 0.00 0.00 0.00 29 1015.3
20210412174347 51 29 4.0 10.0 0.00 0.00 0.00 28 1015.2
20210412173333 50 11 5.0 11.0 0.00 0.00 0.00 32 1015.2
20210412172859 50 32 4.0 11.0 0.00 0.00 0.00 33 1015.4
20210412171349 49 327 6.0 10.0 0.00 0.00 0.00 34 1015.4
20210412170727 47 300 6.0 9.0 0.00 0.00 0.00 37 1015.6
20210412165826 46 351 3.0 9.0 0.00 0.00 0.00 36 1015.6
20210412164344 47 317 2.0 9.0 0.00 0.00 0.00 36 1015.5
20210412163341 47 30 2.0 9.0 0.00 0.00 0.00 39 1015.5
20210412162854 44 265 0.0 6.0 0.00 0.00 0.00 40 1015.5
20210412161332 45 227 3.0 5.0 0.00 0.00 0.00 40 1015.5
20210412160353 44 190 3.0 4.0 0.00 0.00 0.00 42 1015.4
20210412155847 43 173 3.0 5.0 0.00 0.00 0.00 41 1015.4
20210412154347 43 199 1.0 4.0 0.00 0.00 0.00 43 1015.4
20210412153335 42 140 1.0 4.0 0.00 0.00 0.00 43 1015.4
20210412152836 41 186 2.0 4.0 0.00 0.00 0.00 45 1015.4
20210412151336 40 175 1.0 3.0 0.00 0.00 0.00 47 1015.5
20210412150341 41 150 1.0 3.0 0.00 0.00 0.00 46 1015.6
20210412145902 0 82 0.0 3.0 0.00 0.00 0.00 1015.4
20210412144335 0 82 0.0 1.0 0.00 0.00 0.00 1015.4
20210412143333 0 82 0.0 1.0 0.00 0.00 0.00 1015.5
20210412142843 0 82 0.0 1.0 0.00 0.00 0.00 1015.4
20210412141338 0 82 0.0 2.0 0.00 0.00 0.00 1015.3
20210412140405 28 82 2.0 3.0 0.00 0.00 0.00 65 1015.1
20210412135855 28 82 2.0 3.0 0.00 0.00 0.00 65 1015.1
20210412134329 28 69 0.0 0.0 0.00 0.00 0.00 64 1014.9
20210412133340 27 69 0.0 0.0 0.00 0.00 0.00 64 1014.8
20210412132557 27 69 0.0 2.0 0.00 0.00 0.00 63 1014.7
20210412131329 28 69 1.0 4.0 0.00 0.00 0.00 61 1014.5
20210412130358 28 66 2.0 4.0 0.00 0.00 0.00 62 1014.6
20210412125959 27 66 1.0 4.0 0.00 0.00 0.00 61 1014.4
20210412124331 27 56 2.0 3.0 0.00 0.00 0.00 62 1014.4
20210412123340 27 50 1.0 3.0 0.00 0.00 0.00 61 1014.3
20210412122919 28 44 2.0 4.0 0.00 0.00 0.00 61 1014.2
20210412121336 28 75 0.0 4.0 0.00 0.00 0.00 62 1014.1
20210412120422 28 29 3.0 4.0 0.00 0.00 0.00 60 1014.2
20210412115951 28 67 3.0 4.0 0.00 0.00 0.00 59 1013.9
20210412114346 29 65 2.0 4.0 0.00 0.00 0.00 56 1014.0
20210412113345 31 69 3.0 5.0 0.00 0.00 0.00 54 1013.9
20210412112716 32 71 3.0 5.0 0.00 0.00 0.00 52 1013.9
20210412111345 34 11 3.0 7.0 0.00 0.00 0.00 53 1013.9
20210412110346 33 351 3.0 7.0 0.00 0.00 0.00 52 1013.9
20210412105851 35 360 5.0 9.0 0.00 0.00 0.00 51 1013.8
20210412104342 35 16 4.0 14.0 0.00 0.00 0.00 51 1013.7
20210412103335 34 355 6.0 12.0 0.00 0.00 0.00 51 1013.5
20210412102849 35 13 6.0 14.0 0.00 0.00 0.00 51 1013.7
20210412101351 35 13 8.0 14.0 0.00 0.00 0.00 50 1013.5
20210412100354 35 10 10.0 17.0 0.00 0.00 0.00 51 1013.4
20210412095900 35 330 8.0 13.0 0.00 0.00 0.00 51 1013.4
20210412094342 35 42 7.0 13.0 0.00 0.00 0.00 50 1013.4
20210412093331 35 20 5.0 11.0 0.00 0.00 0.00 51 1013.2
20210412092656 36 355 7.0 12.0 0.00 0.00 0.00 50 1013.1
20210412091329 36 335 7.0 13.0 0.00 0.00 0.00 50 1013.1
20210412090359 36 351 6.0 10.0 0.00 0.00 0.00 51 1013.3
20210412085840 36 16 6.0 15.0 0.00 0.00 0.00 51 1013.3
20210412084342 36 9 10.0 14.0 0.00 0.00 0.00 51 1013.2
20210412083329 37 37 3.0 7.0 0.00 0.00 0.00 49 1013.2
20210412082840 38 17 2.0 9.0 0.00 0.00 0.00 48 1013.3
20210412081336 38 11 7.0 12.0 0.00 0.00 0.00 44 1013.6
20210412080359 37 32 8.0 14.0 0.00 0.00 0.00 46 1013.4
20210412075731 38 19 5.0 11.0 0.00 0.00 0.00 44 1013.4
20210412074342 38 9 6.0 11.0 0.00 0.00 0.00 45 1013.2
20210412073336 38 298 4.0 14.0 0.00 0.00 0.00 45 1013.2
20210412072851 38 19 5.0 11.0 0.00 0.00 0.00 43 1013.1
20210412071348 37 16 3.0 9.0 0.00 0.00 0.00 42 1013.0
20210412070347 35 355 2.0 5.0 0.00 0.00 0.00 41 1013.0
20210412065734 37 5 2.0 3.0 0.00 0.00 0.00 40 1013.0
20210412064339 38 49 2.0 4.0 0.00 0.00 0.00 38 1012.9
20210412063339 39 351 0.0 5.0 0.00 0.00 0.00 40 1012.9
20210412063029 39 336 3.0 8.0 0.00 0.00 0.00 37 1012.8
20210412061345 38 300 3.0 5.0 0.00 0.00 0.00 35 1012.9
20210412060352 38 348 3.0 5.0 0.00 0.00 0.00 37 1012.8
20210412055758 39 281 2.0 4.0 0.00 0.00 0.00 37 1012.8
20210412054447 39 300 3.0 8.0 0.00 0.00 0.00 38 1012.9
20210412053346 41 293 4.0 8.0 0.00 0.00 0.00 35 1012.7
20210412052903 41 298 5.0 8.0 0.00 0.00 0.00 34 1012.6
20210412051342 42 236 3.0 8.0 0.00 0.00 0.00 31 1012.6
20210412045930 40 197 1.0 4.0 0.00 0.00 0.00 33 1012.6
20210412044340 40 225 0.0 6.0 0.00 0.00 0.00 34 1012.6
20210412043457 41 175 1.0 7.0 0.00 0.00 0.00 32 1012.5
20210412042905 40 195 3.0 11.0 0.00 0.00 0.00 33 1012.4
20210412041337 40 198 5.0 11.0 0.00 0.00 0.00 32 1012.4
20210412040343 41 197 4.0 8.0 0.00 0.00 0.00 31 1012.3
20210412035747 41 215 3.0 6.0 0.00 0.00 0.00 30 1012.3
20210412034334 41 227 2.0 6.0 0.00 0.00 0.00 29 1012.3
20210412033334 42 249 3.0 6.0 0.00 0.00 0.00 28 1012.2
20210412032757 43 251 1.0 6.0 0.00 0.00 0.00 26 1012.2
20210412031332 43 306 3.0 10.0 0.00 0.00 0.00 25 1012.1
20210412030358 44 321 4.0 9.0 0.00 0.00 0.00 26 1011.9
20210412025803 44 332 5.0 12.0 0.00 0.00 0.00 25 1012.0
20210412024339 45 292 6.0 16.0 0.00 0.00 0.00 25 1011.8
20210412023339 45 318 5.0 13.0 0.00 0.00 0.00 24 1011.7
20210412022841 45 323 7.0 13.0 0.00 0.00 0.00 27 1011.4
20210412021345 45 303 5.0 12.0 0.00 0.00 0.00 26 1011.5
20210412020355 46 12 7.0 13.0 0.00 0.00 0.00 24 1011.4
20210412015630 46 306 7.0 15.0 0.00 0.00 0.00 27 1011.4
20210412014342 47 300 8.0 16.0 0.00 0.00 0.00 27 1011.3
20210412013415 47 293 8.0 14.0 0.00 0.00 0.00 27 1011.4
20210412012836 47 329 10.0 19.0 0.00 0.00 0.00 27 1011.4
20210412011340 48 331 9.0 19.0 0.00 0.00 0.00 27 1011.4
20210412010401 48 349 11.0 18.0 0.00 0.00 0.00 27 1011.3
20210412004337 49 325 11.0 19.0 0.00 0.00 0.00 27 1011.4
20210412003335 50 319 8.0 20.0 0.00 0.00 0.00 27 1011.6
20210412003045 51 289 8.0 19.0 0.00 0.00 0.00 27 1011.7
20210412001342 51 355 10.0 18.0 0.00 0.00 0.00 26 1011.6
20210412000349 52 314 8.0 17.0 0.00 0.00 0.00 26 1011.6
20210411235827 52 293 9.0 16.0 0.00 0.00 0.00 26 1011.7
20210411234327 52 152 11.0 19.0 0.00 0.00 0.00 26 1011.6
20210411233343 53 329 7.0 18.0 0.00 0.00 0.00 26 1011.8
20210411232906 53 18 12.0 18.0 0.00 0.00 0.00 26 1011.7
20210411231345 54 13 11.0 20.0 0.00 0.00 0.00 26 1011.6
20210411230350 53 323 11.0 18.0 0.00 0.00 0.00 27 1011.6
20210411225800 54 309 8.0 18.0 0.00 0.00 0.00 27 1011.6
20210411224331 54 331 10.0 17.0 0.00 0.00 0.00 27 1011.6
20210411223419 54 304 8.0 17.0 0.00 0.00 0.00 27 1011.6
20210411222923 54 309 12.0 18.0 0.00 0.00 0.00 27 1011.5
20210411221335 54 334 10.0 16.0 0.00 0.00 0.00 28 1011.6
20210411220543 55 325 7.0 15.0 0.00 0.00 0.00 28 1011.6
20210411215847 55 294 9.0 16.0 0.00 0.00 0.00 28 1011.8
20210411214342 55 306 6.0 16.0 0.00 0.00 0.00 28 1011.9
20210411213342 56 330 8.0 15.0 0.00 0.00 0.00 27 1012.2
20210411212858 56 340 9.0 17.0 0.00 0.00 0.00 27 1012.2
20210411211339 55 355 9.0 16.0 0.00 0.00 0.00 29 1012.2
20210411210403 55 355 9.0 15.0 0.00 0.00 0.00 27 1012.3
20210411205834 56 26 8.0 15.0 0.00 0.00 0.00 27 1012.4
20210411204327 56 5 9.0 14.0 0.00 0.00 0.00 27 1012.6
20210411203535 55 307 9.0 15.0 0.00 0.00 0.00 27 1012.7
20210411202952 56 5 7.0 16.0 0.00 0.00 0.00 25 1012.7
20210411201340 56 33 9.0 15.0 0.00 0.00 0.00 27 1012.9
20210411200418 56 348 9.0 17.0 0.00 0.00 0.00 27 1012.9